Location: Kelshall
(52.0000°N, 0.0500°W)
Time: 07:09:01
(UTC+00:00)

Meteor 1-15 Rocket - Pass Details

Date: 23 January 2021
Orbit: 840 x 907 km, 81.2° (Epoch: 24 February)

Event Time Altitude Azimuth Distance (km) Brightness Sun altitude
Exits shadow 05:38:20 18° 332° (NNW) 2,022 5.9 -20.3°
Drops below altitude 10° 05:40:30 10° 352° (N) 2,528 6.5 -20.0°
Sets 05:43:34 0° 8° (N) 3,483 7.4 -19.5°
